Tracking 30970 objects as of 3-Jul-2025
HD Live streaming from Space Station
objects crossing your sky now

COSMOS 1275 DEB

Track COSMOS 1275 DEB now!
10-day predictions


NORAD ID: 12749
Int'l Code: 1981-053CS
Perigee: 938.4 km
Apogee: 1,031.9 km
Inclination: 82.8 °
Period: 104.6 minutes
Semi major axis: 7356 km
RCS: 0.0541 m2 (small)
Launch date: June 4, 1981
Source: Commonwealth of Independent States (former USSR) (CIS)
Launch site: PLESETSK MISSILE AND SPACE COMPLEX (PKMTR)

Note: This is SATELLITE DEBRIS
Your satellite tracking list
Your tracking list is empty




NASA's NSSDC Master Catalog

Two Line Element Set (TLE):
1 12749U 81053CS  25183.94914713  .00000297  00000-0  28600-3 0  9994
2 12749  82.8116 339.3155 0063612  74.3250  50.3831 13.76028989197997
Source of the keplerian elements: AFSPC